Погода Ливны

Погода Ливны : погода сейчас, прогноз погоды и архив. Всё, что Вы хотите узнать о погоде Ливны!

Хотите узнать прогноз погоды Ливны? Тогда Вам сюда: Погода Ливны

Поиск расширенной информации на нашем сайте:

Другие новости

Новости СМИ2

Главная страница сайта

Новости сайта

02.10.2013

Напоминаем, что на нашем новом сайте вы можете получить высокодетализированные прогнозы погоды по пунктам России, СНГ и мира (включающие важные для авиации метеовеличины, такие как направление и скорость ветра, видимость, явления погоды, количество и форма облачности, нижняя и верхняя граница облачности), а также ознакомиться с разнообразными материалами по авиационной метеорологии и подборкой полезных ссылок на эту тему.

Сайт Метеоцентр.Азия посвящён разработке технологий оптимизации авиаметеорологического обслуживания, включая проектирование и перспективное создание нескольких автоматизированных авиаметеорологических систем:
- система выпуска высокодетальных прогностических карт явлений погоды для нижнего воздушного пространства по России и ближнему зарубежью;
- система верификации прогнозов TAF (выпускаемых синоптиками официальных АМСГ РФ и ближнего зарубежья) и AUTOTAF (выпускаемых сайтом Метеоцентр.Азия) - выявление ошибок, онлайн-сопоставление с фактической погодой METAR, автоматическое внесение коррективов в прогнозы при резком отклонении фактической погоды от прогноза, подсчёт оправдываемости прогнозов по элементам и в целом;
- система обработки, анализа и отображения авиаметеорологической информации для применения провайдерами метеорологической информации.

Рекомендуем: биолан

Погода Ливны - сегодня

Время (UTC), дата Ветер
(°,м/с) 
Видим.   Явления Облачность Т
(°С)
Тd
(°С)
f(%) Тe
(°С)
Pmin
(гПа)
dP
(гПа)
Po
(мм)
O2
(г/м3)
Тmin Tmax R s Состояние
почвы
09 18.01.17 340 (С) 10 км    9/9 600 м 
[Sc]
-4.2 -5.1 93 -4  1037.7  761  312           
12 18.01.17 300 (СЗ) 20000 м    9/9 600 м 
[Sc]
-3.6 -5.7 85 -3  1037.3  -0.4  761  311           
15 18.01.17 310 (СЗ) 20000 м  {снег}  10/10 600 м 
[Sc]
-5.2 -6.6 90 -5  1037.8  0.4  761  313      0.0     
18 18.01.17 300 (СЗ) 20000 м  {снег}  9/9 600 м 
[Sc]
-5.4 -7.7 84 -8  1038  0.2  761  314    -3.6  0.0     
21 18.01.17 280 (З) 20000 м    10/10 600 м 
[Sc]
-5.6 -7.8 84 -7  1037.7  -0.3  761  314           
00 19.01.17 280 (З) 20000 м    ясно 
-8.1 -9.5 90 -10  1037  -0.9  760  317           
03 19.01.17 260 (З) 20000 м    ясно 
-10.2 -11.5 90 -13  1036.5  -0.7  760  319  -10.2         
06 19.01.17 240 (ЮЗ) 20000 м  слаб. снег  10/10 600 м 
[Ns]
-13.4 -15.4 85 -13  1037.3  0.4  760  323  -13.7    0.0  30  равномерный
сухой снег
100% 
09 19.01.17 280 (З) 20000 м  слаб. снег  10/10 600 м 
[Ns]
-8.8 -10.8 85 -13  1035.6  -1.3  759  317           
12 19.01.17 260 (З) 20000 м  {снег}  9/9 600 м 
[Sc]
-7.1 -10 80 -10  1033.5  -1.8  758  314           
15 19.01.17 270 (З) 4-10{10}  20000 м    10/10 600 м 
[Sc]
-7.2 -9.3 85 -11  1031.5  -2  756  314      0.0     
18 19.01.17 250 (З) 4{10}  20000 м    9/9 600 м 
[Sc]
-7.5 -9.7 84 -11  1029.2  -2.2  754  314    -7.1  0.0     
21 19.01.17 260 (З) 4{11}  20000 м    10/10 600 м 
[Sc]
-7.6 -9.4 87 -11  1027.2  -2  753  313           
00 20.01.17 260 (З) 5{11}  20000 м    10/10 600 м 
[Sc]
-6.8 -8.8 86 -11  1024.2  -2.9  751  311           
03 20.01.17 260 (З) 5-10{11}  20000 м  позёмок  10/10 600 м 
[Sc]
-6.6 -8.6 86 -11  1021.9  -2.3  749  310  -8         
06 20.01.17 270 (З) 4{11}  20000 м  слаб. снег  10/10 600 м 
[Ns]
-6.5 -8.5 86 -10  1020.5  -1.4  748  310  -7.6    0.0  30  равномерный
сухой снег
100% 
09 20.01.17 280 (З) 5-10{10}  20000 м  {снег}  10/10 600 м 
[Sc]
-5.3 -7.4 85 -9  1020.4  0.1  748  308           
12 20.01.17 270 (З) 4{10}  20000 м  слаб. снег  10/10 600 м 
[Sc]
-4.1 -6 87 -7  1019.3  -0.8  747  306           
15 20.01.17 290 (З) 20000 м  {снег}  10/10 600 м 
[Sc]
-3.4 -5.9 83 -6  1019.5  0.2  748  306      0.0     
18 20.01.17 270 (З) 20000 м  {снег}  8/8 600 м 
[Sc]
-2.7 -5.7 80 -4  1019.3  -0.2  747  305    -2.7  0.0     
21 20.01.17 270 (З) 20000 м    9/9 600 м 
[Sc]
-2.9 -5.2 84 -4  1018.6  -0.7  747  305           
00 21.01.17 260 (З) 20000 м    9/9 600 м 
[Sc]
-2.9 -5.2 84 -5  1017.5  -1.1  746  304           
03 21.01.17 260 (З) 20000 м  слаб. снег  10/10 300 м 
[Ns]
-2.4 -4 89 -4  1015.4  -1.9  745  303  -2.9    0.2     
06 21.01.17 260 (З) 20000 м  слаб. снег{морось}  10/10 300 м 
[Ns]
-2.3 -3.5 91 -5  1013.7  -1.6  743  302  -2.9    0.6  30  равномерный
сухой снег
100% 
09 21.01.17 290 (З) 20000 м  в посл. час снег  10/10 600 м 
[Sc]
-0.9 -2.5 89 -3  1012.9  -0.8  743  301           
Время (UTC), дата Ветер
(°,м/с) 
Видим.   Явления Облачность Т
(°С)
Тd
(°С)
f(%) Тe
(°С)
Pmin
(гПа)
dP
(гПа)
Po
(мм)
O2
(г/м3)
Тmin Tmax R s Состояние
почвы

Для получения пояснительной информации подведите курсор к названию столбца.

ПОГОДА Ливны - архив

Всё, что Вы хотите узнать о погоде Ливны - удобно и подробно!

Выберите нужную дату (начиная с 1 января 2015* года) и нажмите кнопку "Найти".
Будут отображены архивные сводки погоды по пункту Ливны, начиная с указанной даты.


Отображать данные в формате CSV (для использования в таблицах Excel)


Внимание! Наш архив погоды предназначен исключительно для личного некоммерческого использования в познавательных целях. Если Вам необходимы официальные справки о состоянии погоды (для производственных, юридических, коммерческих и т.п. целей), обращайтесь в органы Росгидромета.

*Примечание: данная дата относится к архиву по метеостанциям СССР (Россия, СНГ, Балтия).
Архив по метеостанциям Зарубежной Европы и Азии (кроме Китая) хранится 10 дней, по другим регионам земного шара (Китай, Африка, Америка, Австралия, Океания) - 1 день.

Ливны - район местоположения метеостанции


Название, широта, долгота, высота метеостанции:
Ливны 52.4°ш. 37.6°д. 179 м над ур. моря [Российская Федерация]

Дополнительная информация

В oтличие oт бoльшинства пoгoдных сайтoв мы публикуем пoдрoбную метеoинфoрмацию в детальнoм прoфессиoнальнoм фoрмате.

Характеристики температуры и влажнoсти вoздуха измеряются на высoте 2 м в тени вдали oт зданий и деревьев.
Скoрoсть ветра измеряется на высoте 10 м (на урoвне рoста челoвека скoрoсть ветра ниже в 1.5-2 раза). Если метеoстанция нахoдится в гoрoде или в лесу, тo скoрoсть ветра занижена на 2-4 м/с пo сравнению с oткрытым местoм. Скoрoсть ветра над акватoриями крупных рек и oзёр, а также на вершинах хoлмoв на 2-5 м/с выше, чем в oбычных услoвиях.
Атмoсфернoе давление в разных тoчках местнoсти мoжет значительнo oтличаться oт давления на метеoстанции, в зависимoсти oт услoвий рельефа (при пoдъёме на 10 м давление пoнижается примернo на 1 мм рт.ст.).